Terug naar catalogus

TITAN 34B R/B

ActiefHEO
NORAD 7688·ROCKET BODY·🇺🇸 United States

Gelanceerd Mar 10, 1975 vanaf Vandenberg Space Force Base

Loading…

Volgende Passages (komende 24 uur)

TLE

VersSource: Space-Track

Epoch: Sep 14, 2026, 14:50 UTC

1 07688U 75017B   26257.61808561  .00014510  00000-0  71335-3 0  9999
2 07688  63.2713 107.2368 5291818 273.6596  30.2236  5.21822829120886

Volg TITAN 34B R/B in realtime met AllMySat

Download on the App Store